Location: Peebles
(55.6412°N, 3.1714°W)
Time: 08:36:32
(UTC+01:00)

SME Rocket - Pass Details

Date: 26 September 2021
Orbit: 550 x 2651 km, 99.9° (Epoch: 20 October)

Event Time Altitude Azimuth Distance (km) Brightness Sun altitude
Rises 19:35:33 0° 17° (NNE) 3,427 6.8 -5.7°
Reaches altitude 10° 19:38:15 10° 12° (NNE) 2,267 5.9 -6.1°
Maximum altitude 19:42:42 47° 299° (WNW) 823 4.3 -6.8°
Drops below altitude 10° 19:46:20 10° 225° (SW) 1,847 6.1 -7.3°
Sets 19:48:21 0° 219° (SW) 2,718 6.8 -7.5°
